Flag for Germany Weather past 2 weeks in Erlangen, Bavaria, Germany

Now
77 °F

Partly sunny.


Feels Like: 79 °F
Forecast: 56 / 79 °F
Wind: 8 mph from East

Location: Nuernberg

Current Time: Jul 23, 2014 at 12:05:56 PM

Latest Report: Jul 23, 2014 at 11:20 AM


Visibility: N/A

Pressure: 30.01 "Hg

Humidity: 51%

Dew point: 57 °F

Location of ErlangenLocation

Historic Weather in Erlangen — Graph

°F

Erlangen temperature yesterday

Maximum temperature yesterday: 81 °F (at 6:20 PM)
Minimum temperature yesterday: 64 °F (at 5:50 AM)
Average temperature yesterday: 71 °F

Past Weeks' High & Low Weather Summary

 TemperatureHumidityPressure
High90 °F (Jul 19, 3:20 PM)100% (Jul 8, 7:50 PM)30.18 "Hg (Jul 8, 7:50 PM)
Low54 °F (Jul 9, 4:50 AM)26% (Jul 19, 5:50 PM)29.71 "Hg (Jul 9, 3:50 AM)
Average67 °F75%29.95 "Hg
* Reported Jul 8 10:20 AM — Jul 23 10:50 AM, Erlangen, Weather by CustomWeather, © 2014

Note: Actual official high and low records may vary slightly from our data, if they occured in-between our weather recording intervals... More about our weather records

Advertising

Erlangen weather history for previous 24 hours

 ConditionsComfort  
Time TempWeatherWind HumidityBarometerVisibility
10:50 AM
Jul 23
77 °FPartly sunny.9 mph51%30.04 "HgN/A
10:20 AM75 °FPassing clouds.6 mph54%30.04 "HgN/A
9:50 AM73 °FPassing clouds.7 mph57%30.04 "HgN/A
7:50 AM66 °FSunny.1 mph78%30.04 "Hg10 mi
7:20 AM63 °FSunny.1 mph88%30.01 "Hg10 mi
6:50 AM61 °FSunny.1 mph88%30.01 "Hg10 mi
6:20 AM57 °FFog.1 mph100%30.01 "HgN/A
5:50 AM57 °FFog.1 mph94%30.01 "HgN/A
5:20 AM59 °FFog.1 mph88%30.01 "HgN/A
4:50 AM59 °FClear.1 mph94%30.01 "Hg10 mi
4:20 AM59 °FClear.1 mph88%30.01 "Hg10 mi
3:50 AM61 °FClear.1 mph88%30.01 "Hg10 mi
3:20 AM61 °FClear.1 mph88%30.01 "Hg10 mi
2:50 AM63 °FClear.1 mph83%30.01 "Hg10 mi
2:20 AM61 °FClear.1 mph88%30.01 "Hg10 mi
1:50 AM63 °FPassing clouds.3 mph83%30.01 "HgN/A
6:50 PM
Jul 22
79 °FSunny.6 mph42%29.95 "Hg10 mi
6:20 PM81 °FPassing clouds.7 mph39%29.92 "HgN/A
5:50 PM79 °FSunny.6 mph51%29.92 "Hg10 mi
5:20 PM79 °FPassing clouds.6 mph54%29.92 "HgN/A
4:50 PM79 °FPartly sunny.6 mph58%29.92 "HgN/A
4:20 PM79 °FPartly sunny.7 mph54%29.92 "HgN/A
3:50 PM77 °FPartly sunny.10 mph57%29.92 "HgN/A
3:20 PM79 °FPartly sunny.9 mph61%29.92 "HgN/A
2:50 PM79 °FBroken clouds.9 mph65%29.92 "HgN/A
2:20 PM77 °FBroken clouds.7 mph69%29.92 "HgN/A
1:50 PM77 °FBroken clouds.7 mph74%29.92 "HgN/A
1:20 PM75 °FPartly sunny.7 mph78%29.92 "HgN/A
12:50 PM73 °FPartly sunny.3 mph83%29.92 "HgN/A
12:20 PM72 °FBroken clouds.2 mph88%29.92 "HgN/A
Weather by CustomWeather, © 2014

See weather overviewHow to use our weather pages